User: anonymous   Login
Location: Bamobli
(6.6379°N, 10.9396°W)
Time: 17:52:32
(UTC+00:00)
Language:

BEESAT 2 - Orbit

View from above orbital plane
View from above orbital plane
View from above satellite
View from above satellite

Ground track
Ground track

The orbit data is extracted from the following two-line orbital elements,

1 39136U 13015G   21133.73878062  .00001310  00000-0  72182-4 0  9992
2 39136  64.8745 320.2166 0025819 249.0784 110.7578 15.18645827445646
Epoch (UTC): 13 May 2021 17:43:50
Eccentricity: 0.0025819
inclination: 64.8745°
perigee height: 492 km
apogee height: 528 km
right ascension of ascending node: 320.2166°
argument of perigee: 249.0784°
revolutions per day: 15.18645827
mean anomaly at epoch: 110.7578°
orbit number at epoch: 44564

The dashed part of the orbit path shows where the satellite is in the earth's shadow,  

DLR